Precipitable_Water
0.96 0.96 0.92 0.85 0.78 0.62 0.56 0.57 0.59 0.61 0.63 0.68 0.73 0.72 0.68 0.69 0.72 0.71 0.73 0.76 0.75 0.76 0.75 0.72 0.70 0.67 0.66 0.63 0.63 0.63 0.62 0.60 0.60 0.60 0.62 0.80 0.98 1.07 1.19 1.26 1.25 1.13 1.15
0.97 0.91 0.85 0.74 0.67 0.62 0.61 0.61 0.59 0.59 0.58 0.57 0.57 0.60 0.60 0.61 0.62 0.66 0.68 0.69 0.70 0.70 0.71 0.70 0.69 0.68 0.66 0.64 0.62 0.61 0.60 0.59 0.59 0.60 0.60 0.59 0.60 0.75 0.97 1.08 1.22 1.31 1.21
0.94 0.88 0.77 0.69 0.65 0.65 0.65 0.64 0.61 0.60 0.58 0.57 0.55 0.55 0.56 0.55 0.56 0.59 0.65 0.66 0.66 0.67 0.68 0.67 0.67 0.66 0.65 0.63 0.61 0.60 0.59 0.58 0.59 0.58 0.58 0.59 0.60 0.61 0.60 0.77 0.98 1.11 1.27
0.91 0.81 0.75 0.72 0.69 0.68 0.67 0.65 0.63 0.61 0.61 0.61 0.59 0.58 0.57 0.56 0.57 0.59 0.62 0.64 0.65 0.67 0.63 0.63 0.63 0.63 0.62 0.62 0.61 0.57 0.58 0.57 0.56 0.56 0.57 0.57 0.57 0.57 0.56 0.57 0.61 0.84 1.02
0.90 0.82 0.78 0.74 0.71 0.68 0.67 0.66 0.64 0.63 0.61 0.60 0.58 0.60 0.60 0.60 0.61 0.61 0.61 0.62 0.62 0.62 0.61 0.57 0.57 0.57 0.59 0.57 0.55 0.55 0.53 0.53 0.52 0.53 0.55 0.56 0.56 0.57 0.58 0.58 0.57 0.59 0.67
0.92 0.86 0.82 0.74 0.72 0.70 0.69 0.68 0.67 0.66 0.64 0.61 0.57 0.59 0.60 0.61 0.62 0.61 0.59 0.61 0.63 0.62 0.62 0.61 0.58 0.57 0.55 0.53 0.53 0.53 0.53 0.52 0.53 0.53 0.53 0.54 0.53 0.53 0.56 0.57 0.58 0.58 0.58
0.93 0.90 0.84 0.78 0.76 0.73 0.72 0.70 0.68 0.65 0.64 0.64 0.60 0.58 0.58 0.59 0.60 0.62 0.64 0.63 0.65 0.65 0.64 0.61 0.58 0.54 0.52 0.51 0.51 0.51 0.51 0.51 0.52 0.50 0.50 0.50 0.53 0.53 0.53 0.53 0.55 0.57 0.59
0.97 0.93 0.88 0.80 0.79 0.78 0.77 0.73 0.71 0.66 0.66 0.66 0.60 0.58 0.51 0.55 0.59 0.63 0.66 0.66 0.65 0.65 0.61 0.59 0.57 0.55 0.54 0.53 0.50 0.48 0.47 0.49 0.50 0.49 0.47 0.46 0.47 0.49 0.52 0.53 0.53 0.55 0.56
1.04 1.00 0.94 0.87 0.87 0.85 0.78 0.76 0.75 0.72 0.65 0.65 0.63 0.58 0.54 0.52 0.61 0.63 0.64 0.66 0.66 0.66 0.65 0.62 0.60 0.58 0.56 0.55 0.53 0.51 0.50 0.48 0.44 0.40 0.39 0.41 0.43 0.45 0.49 0.54 0.54 0.53 0.56
1.26 1.13 1.05 0.97 0.94 0.89 0.84 0.81 0.81 0.78 0.75 0.68 0.71 0.69 0.66 0.65 0.57 0.59 0.66 0.67 0.69 0.67 0.68 0.66 0.61 0.57 0.55 0.54 0.52 0.49 0.44 0.39 0.35 0.35 0.37 0.39 0.41 0.42 0.43 0.45 0.51 0.55 0.54
1.46 1.34 1.26 1.11 1.04 1.03 0.97 0.92 0.89 0.83 0.79 0.73 0.70 0.69 0.65 0.66 0.67 0.63 0.59 0.67 0.70 0.69 0.68 0.64 0.60 0.56 0.54 0.51 0.49 0.44 0.39 0.34 0.33 0.33 0.34 0.37 0.40 0.41 0.42 0.43 0.46 0.52 0.57
1.50 1.45 1.32 1.22 1.18 1.13 1.09 1.01 0.86 0.81 0.76 0.72 0.71 0.70 0.68 0.67 0.65 0.66 0.62 0.62 0.62 0.66 0.64 0.60 0.56 0.54 0.53 0.50 0.43 0.34 0.30 0.28 0.28 0.30 0.30 0.30 0.32 0.34 0.38 0.41 0.45 0.49 0.57
1.39 1.35 1.31 1.27 1.24 1.17 1.00 0.89 0.84 0.81 0.77 0.75 0.75 0.71 0.72 0.72 0.70 0.68 0.64 0.60 0.59 0.60 0.57 0.57 0.53 0.51 0.47 0.39 0.32 0.29 0.27 0.27 0.30 0.31 0.30 0.30 0.32 0.34 0.35 0.36 0.40 0.46 0.54
1.34 1.34 1.29 1.28 1.20 1.06 0.93 0.90 0.86 0.83 0.81 0.77 0.76 0.73 0.68 0.69 0.69 0.70 0.68 0.63 0.52 0.48 0.47 0.43 0.44 0.45 0.37 0.31 0.29 0.27 0.27 0.30 0.30 0.31 0.32 0.33 0.34 0.35 0.37 0.38 0.40 0.42 0.44
1.36 1.34 1.29 1.26 1.11 0.97 0.92 0.89 0.92 0.88 0.85 0.80 0.75 0.69 0.66 0.72 0.73 0.69 0.65 0.56 0.46 0.37 0.35 0.36 0.37 0.39 0.32 0.27 0.28 0.29 0.29 0.31 0.33 0.34 0.35 0.37 0.39 0.39 0.39 0.40 0.41 0.44 0.45
1.36 1.34 1.27 1.18 1.12 1.07 1.10 0.97 0.91 0.96 0.85 0.77 0.67 0.64 0.67 0.64 0.62 0.57 0.54 0.50 0.45 0.39 0.32 0.36 0.36 0.33 0.28 0.27 0.29 0.30 0.30 0.32 0.33 0.34 0.36 0.37 0.36 0.36 0.37 0.39 0.40 0.42 0.45
1.29 1.27 1.22 1.22 1.17 1.04 0.94 0.83 0.82 0.78 0.70 0.64 0.63 0.62 0.61 0.60 0.54 0.52 0.49 0.44 0.41 0.39 0.33 0.32 0.30 0.29 0.29 0.29 0.29 0.31 0.33 0.34 0.35 0.35 0.37 0.38 0.38 0.37 0.39 0.41 0.43 0.44 0.46
1.00 1.02 0.99 0.90 0.82 0.75 0.72 0.71 0.66 0.61 0.58 0.57 0.58 0.55 0.52 0.51 0.48 0.47 0.44 0.41 0.40 0.39 0.35 0.27 0.27 0.28 0.30 0.32 0.32 0.30 0.31 0.33 0.33 0.35 0.39 0.40 0.42 0.44 0.47 0.50 0.50 0.51 0.51
0.69 0.69 0.70 0.68 0.65 0.63 0.60 0.59 0.56 0.53 0.51 0.51 0.50 0.49 0.48 0.46 0.42 0.41 0.42 0.40 0.38 0.36 0.32 0.30 0.27 0.31 0.32 0.34 0.32 0.33 0.33 0.37 0.41 0.42 0.43 0.46 0.47 0.50 0.52 0.51 0.53 0.54 0.54
0.56 0.56 0.56 0.54 0.52 0.50 0.49 0.47 0.46 0.46 0.45 0.44 0.44 0.42 0.40 0.39 0.39 0.39 0.38 0.35 0.33 0.33 0.33 0.32 0.31 0.32 0.34 0.34 0.35 0.33 0.35 0.41 0.42 0.47 0.49 0.50 0.50 0.50 0.50 0.52 0.53 0.54 0.54
0.45 0.42 0.40 0.40 0.40 0.39 0.40 0.41 0.41 0.40 0.38 0.38 0.39 0.39 0.38 0.38 0.38 0.38 0.37 0.35 0.35 0.35 0.36 0.35 0.36 0.33 0.33 0.33 0.32 0.39 0.39 0.42 0.44 0.47 0.47 0.48 0.49 0.50 0.51 0.51 0.50 0.49 0.49
0.34 0.33 0.32 0.31 0.30 0.29 0.31 0.32 0.32 0.33 0.34 0.34 0.33 0.35 0.37 0.38 0.38 0.39 0.40 0.42 0.44 0.42 0.37 0.36 0.36 0.33 0.34 0.34 0.39 0.39 0.43 0.40 0.37 0.49 0.46 0.45 0.50 0.48 0.50 0.51 0.52 0.51 0.51
0.24 0.24 0.24 0.25 0.25 0.27 0.29 0.31 0.33 0.34 0.35 0.35 0.34 0.34 0.34 0.34 0.34 0.34 0.35 0.37 0.37 0.38 0.38 0.36 0.31 0.30 0.32 0.38 0.42 0.43 0.44 0.44 0.42 0.47 0.49 0.45 0.52 0.48 0.52 0.54 0.54 0.53 0.52
0.25 0.26 0.26 0.27 0.28 0.30 0.31 0.34 0.35 0.34 0.35 0.35 0.35 0.34 0.32 0.30 0.31 0.31 0.32 0.32 0.32 0.34 0.36 0.38 0.38 0.39 0.41 0.44 0.46 0.48 0.46 0.48 0.51 0.53 0.56 0.45 0.52 0.51 0.54 0.55 0.56 0.55 0.52
0.27 0.28 0.29 0.30 0.29 0.30 0.33 0.34 0.34 0.34 0.33 0.33 0.34 0.35 0.36 0.35 0.35 0.36 0.38 0.36 0.38 0.40 0.45 0.46 0.48 0.50 0.52 0.56 0.56 0.57 0.52 0.49 0.45 0.48 0.55 0.52 0.50 0.50 0.50 0.51 0.52 0.53 0.51
0.29 0.29 0.27 0.28 0.29 0.29 0.31 0.32 0.35 0.35 0.35 0.37 0.40 0.42 0.44 0.45 0.46 0.48 0.46 0.45 0.42 0.42 0.44 0.45 0.47 0.52 0.55 0.54 0.55 0.54 0.52 0.47 0.48 0.45 0.53 0.49 0.48 0.49 0.44 0.49 0.51 0.52 0.50
Wind_Speed
13 12 12 11 11 10 10 9 8 7 7 6 6 6 5 5 5 4 4 3 3 3 3 3 4 4 5 6 7 7 8 9 9 9 9 9 10 9 9 8 8 8 8
14 14 13 12 12 12 11 11 10 9 8 8 7 7 7 7 6 6 5 5 4 4 4 5 5 6 7 8 9 10 11 11 11 12 12 12 12 12 12 11 11 10 10
15 15 14 13 13 13 12 12 11 11 10 10 9 9 8 8 8 8 8 7 7 6 7 7 8 9 10 11 12 13 14 14 14 15 15 15 15 15 15 14 14 14 13
17 16 15 15 15 14 14 14 13 13 12 11 11 11 10 10 10 10 10 10 10 10 10 11 12 12 14 15 15 16 17 17 18 18 18 18 18 18 18 18 18 17 17
18 17 17 16 16 16 15 15 14 14 14 13 13 13 12 12 12 12 12 12 12 13 14 15 15 16 17 18 19 19 20 21 21 22 22 22 22 22 22 21 21 20 20
20 19 18 18 18 17 17 16 16 15 15 14 14 14 14 14 14 14 14 15 16 17 17 18 19 20 21 21 22 23 23 24 25 25 26 26 26 26 26 25 25 24 23
22 21 20 20 20 20 19 18 17 17 16 16 15 16 16 16 17 18 18 18 19 20 21 22 22 23 23 24 25 26 27 27 28 29 30 30 30 29 29 28 28 27 26
24 23 23 22 22 21 21 20 19 19 18 18 18 18 18 18 19 19 20 21 21 22 22 23 24 25 27 28 29 30 31 32 33 34 34 34 33 33 32 31 30 29 28
26 25 26 25 24 23 23 22 21 21 20 20 19 18 18 19 19 21 21 22 23 24 26 27 28 29 30 32 33 34 35 36 37 36 36 36 35 34 34 34 34 33 32
29 28 26 27 27 26 24 25 23 23 22 22 22 22 22 21 21 21 23 25 26 28 29 31 32 33 35 36 37 38 39 39 39 38 37 37 37 37 36 36 37 36 36
35 33 34 30 29 29 28 26 25 25 23 22 23 21 22 23 25 26 26 26 29 32 33 34 35 36 37 39 40 41 41 41 41 41 40 40 40 40 40 39 39 39 39
32 35 33 31 29 27 25 24 22 21 21 22 22 23 24 25 26 28 30 32 32 33 34 36 38 39 41 42 43 43 44 43 43 43 42 42 42 43 43 43 43 42 42
27 31 32 29 26 24 23 23 23 22 22 23 25 26 27 28 29 31 32 33 35 36 36 38 40 41 43 45 45 45 45 45 45 44 44 44 44 44 44 45 45 45 45
18 17 19 21 21 23 22 22 24 24 23 25 26 27 29 30 31 32 34 36 37 38 39 41 42 44 45 46 46 47 46 45 44 43 43 42 41 41 42 42 43 45 46
12 16 17 18 20 20 21 21 23 25 26 27 28 29 30 31 33 35 37 38 39 41 42 43 44 44 45 46 46 45 44 42 40 38 36 35 34 34 34 34 35 37 40
9 15 17 17 18 19 22 23 25 27 28 28 30 31 33 34 36 38 39 41 42 44 46 45 46 47 46 45 44 42 38 35 33 32 31 31 31 31 32 32 33 33 33
10 12 15 17 19 19 20 22 23 25 28 30 32 33 35 37 39 41 42 43 45 46 47 47 47 46 44 41 37 34 31 30 29 29 28 29 30 31 31 31 31 32 32
7 8 11 13 15 18 20 22 24 27 29 32 34 36 39 40 42 44 45 46 47 47 47 47 45 42 38 33 31 30 29 29 29 28 29 29 29 29 29 29 30 30 30
6 8 10 13 15 18 21 24 27 30 32 35 37 40 42 44 45 46 47 47 46 45 44 42 39 34 30 29 29 28 28 28 28 28 29 28 27 27 26 27 27 27 28
9 11 13 16 19 21 24 27 30 33 36 38 41 43 45 47 47 48 47 46 44 42 38 34 31 29 28 27 27 28 27 27 27 27 27 27 26 26 27 26 26 25 25
12 14 16 19 21 24 27 30 33 36 39 41 43 45 46 46 47 46 44 41 38 34 31 30 29 28 28 27 28 28 29 28 27 26 26 25 25 25 25 25 25 25 25
15 17 19 22 25 27 30 33 35 38 40 42 43 43 43 43 41 40 38 35 32 29 29 28 28 28 29 30 29 29 28 27 26 25 24 24 24 25 25 25 25 25 25
16 18 21 23 26 29 31 34 35 37 38 39 39 39 38 37 35 33 31 30 30 31 31 32 33 32 32 31 30 29 29 28 28 27 27 26 26 26 26 26 25 25 26
17 20 22 25 28 30 32 33 35 36 36 37 37 36 35 33 32 30 30 30 30 30 31 31 32 31 31 30 30 30 30 30 29 27 28 27 26 27 26 26 26 26 26
19 22 24 26 28 30 32 34 35 35 35 35 34 33 31 29 29 28 28 29 30 30 30 31 32 32 32 32 32 32 31 30 28 27 26 28 27 28 28 27 27 27 28
20 23 25 27 29 31 33 33 33 33 33 31 30 28 26 26 26 26 27 28 28 29 29 29 29 29 30 30 30 31 31 30 28 28 28 30 29 28 27 27 25 25 24
Wind_Direction
228 227 229 230 229 227 226 224 222 223 226 229 229 232 234 236 238 245 256 268 281 296 313 321 325 327 328 332 332 331 329 328 325 323 318 316 313 311 307 305 305 300 291
229 230 230 231 228 227 227 227 227 229 231 233 234 236 237 240 242 244 248 259 267 277 292 301 306 311 311 313 314 314 314 312 311 310 308 306 304 300 296 293 290 289 287
229 230 231 231 230 229 228 228 229 232 235 238 239 238 239 242 244 246 251 255 262 273 284 291 297 300 301 301 302 303 303 302 301 300 298 297 295 293 290 286 283 281 279
228 230 233 233 230 230 231 233 235 238 240 242 242 243 244 245 248 249 252 259 264 272 281 285 289 292 294 295 295 296 296 295 295 294 292 290 288 286 284 283 280 277 273
230 232 234 233 231 232 234 234 237 239 240 244 245 246 247 249 250 252 256 261 266 272 277 282 286 289 290 292 293 292 292 292 291 290 289 288 285 283 281 279 277 274 271
234 234 234 233 234 234 234 236 238 240 242 244 245 248 251 253 255 257 260 264 268 272 277 281 283 286 288 289 290 291 291 291 290 289 287 286 283 281 278 276 274 272 269
235 236 237 236 235 237 239 237 239 241 243 244 246 251 254 257 259 261 264 267 270 274 277 279 282 284 287 288 290 290 290 289 289 288 286 284 281 279 277 274 272 269 267
237 237 238 237 239 240 237 238 241 242 246 245 251 253 257 260 262 263 266 268 271 275 277 280 282 284 286 287 288 289 289 288 287 286 284 282 280 278 275 273 270 268 265
239 240 240 239 242 240 239 241 242 243 245 247 250 255 258 262 264 265 266 269 273 276 278 280 283 284 286 287 288 288 288 287 286 285 284 282 280 278 275 271 268 266 263
238 239 240 242 243 241 243 245 242 246 248 251 251 253 259 265 266 269 270 272 275 278 279 281 283 284 285 287 287 287 288 287 286 284 283 281 279 277 274 271 268 265 262
242 245 243 247 248 245 250 243 244 249 249 250 253 256 259 263 267 272 275 276 279 280 279 280 282 284 286 287 287 287 287 287 285 284 282 280 277 275 273 270 268 264 261
245 243 243 244 248 240 238 241 241 243 247 251 255 259 263 268 270 273 276 277 280 279 280 281 283 284 286 287 288 287 286 286 284 283 281 279 277 274 272 269 267 264 261
245 247 242 238 232 229 234 240 241 247 252 258 260 264 270 269 273 275 277 279 281 281 283 283 284 285 287 287 287 286 286 285 283 282 280 279 277 275 272 269 266 262 260
237 223 215 220 227 232 239 243 248 251 257 265 267 270 270 271 273 276 279 281 281 282 283 284 285 287 287 287 287 286 285 284 282 281 279 279 277 276 273 271 268 264 260
230 221 218 225 232 239 240 251 255 256 266 267 269 271 272 274 276 278 280 281 282 283 284 286 286 288 288 287 287 286 285 283 281 280 279 279 278 278 276 274 272 269 264
240 225 229 236 240 246 251 261 265 261 264 268 272 274 275 277 279 280 281 282 282 283 284 286 286 287 288 287 285 284 282 280 280 279 279 278 278 278 278 276 274 271 269
249 242 242 250 255 260 259 261 265 266 268 272 274 277 278 280 281 282 282 283 283 284 284 285 286 286 286 285 282 279 279 279 280 279 278 279 279 279 279 277 275 272 268
257 251 253 256 258 262 266 268 271 273 275 276 278 280 281 282 283 283 283 283 284 284 284 285 285 285 282 278 276 277 279 279 279 279 279 280 280 279 278 277 275 271 269
268 267 265 267 270 273 276 277 279 280 281 282 283 283 284 284 284 284 284 284 284 283 283 283 282 278 274 274 275 277 279 280 279 279 279 279 278 278 277 278 276 272 269
280 279 280 280 281 282 284 285 285 286 286 286 286 286 286 285 285 285 285 284 283 282 280 277 274 272 273 274 275 278 280 279 280 280 280 278 276 277 276 276 276 274 270
289 288 288 289 290 290 291 291 291 290 290 290 289 288 287 286 285 284 284 283 281 277 273 272 271 272 272 274 276 278 278 280 278 278 279 277 276 276 277 276 275 272 270
294 295 295 296 296 296 298 297 296 296 295 294 293 292 290 289 287 285 282 278 275 273 270 270 270 271 273 275 275 277 276 277 277 277 277 278 276 276 276 276 274 272 270
300 302 303 304 304 304 304 304 303 302 300 299 297 295 293 291 288 285 281 277 274 272 271 272 272 272 274 274 275 274 274 274 275 275 276 277 277 276 275 275 273 271 270
308 309 310 311 310 310 310 309 308 306 303 302 300 297 294 291 287 283 280 277 276 275 275 273 272 272 272 272 271 273 273 275 275 272 277 275 277 275 276 274 271 271 271
314 315 315 315 315 315 315 314 312 310 307 305 302 299 295 291 287 284 281 280 279 278 277 275 274 273 272 270 270 272 271 273 272 272 271 274 274 275 276 275 272 270 270
317 319 320 320 320 318 318 317 316 313 310 308 306 303 299 294 291 287 284 282 282 281 279 278 275 274 274 273 272 269 270 268 269 272 271 273 275 274 274 274 270 271 268